When you browse on this site, cookies collect data to enhance your experience and personalize the content and advertising you see.
Visit our Privacy Policy to learn more. By continuing to use the site, you agree to this use of cookies and data.
  • In Czech Republic
  • List of Countries
  • For 7 days
  • Water Temperature
  • Satellite Maps
  • Weather Map
  • Weather Widgets
  • user-avatar
    Login

    Hourly Weather Pontypool

    Today, 16 January, Wednesday

    Time Temperature Precipitation Wind Pressure Humidity
    00:00 +8°C° 0 mm 6 mps 743 mmHg 90%
    01:00 +8°C° 0.3 mm 7 mps 742 mmHg 89%
    02:00 +7°C° 0.3 mm 8 mps 742 mmHg 89%
    03:00 +7°C° 0.3 mm 8 mps 741 mmHg 89%
    04:00 +7°C° 0.2 mm 8 mps 740 mmHg 89%
    05:00 +7°C° 0.2 mm 8 mps 739 mmHg 88%
    06:00 +7°C° 0 mm 6 mps 739 mmHg 88%
    07:00 +7°C° 0.1 mm 6 mps 738 mmHg 88%
    08:00 +7°C° 0.1 mm 6 mps 738 mmHg 88%
    09:00 +7°C° 0.1 mm 6 mps 738 mmHg 87%
    10:00 +7°C° 0.3 mm 6 mps 738 mmHg 87%
    11:00 +7°C° 0.3 mm 6 mps 738 mmHg 87%
    12:00 +7°C° 0.3 mm 6 mps 737 mmHg 86%
    13:00 +5°C° 0.1 mm 6 mps 737 mmHg 83%
    14:00 +5°C° 0.1 mm 6 mps 737 mmHg 80%
    15:00 +6°C° 0.1 mm 5 mps 737 mmHg 77%
    16:00 +5°C° 0 mm 5 mps 737 mmHg 79%
    17:00 +3°C° 0 mm 5 mps 737 mmHg 81%
    18:00 +2°C° 0 mm 5 mps 736 mmHg 83%
    19:00 +2°C° 0.1 mm 5 mps 737 mmHg 83%
    20:00 +2°C° 0.1 mm 5 mps 737 mmHg 84%
    21:00 +2°C° 0.1 mm 5 mps 737 mmHg 84%
    22:00 +2°C° 0.1 mm 5 mps 737 mmHg 84%
    23:00 +2°C° 0.1 mm 5 mps 738 mmHg 84%

    Tomorrow, 17 January, Thursday

    Time Temperature Precipitation Wind Pressure Humidity
    00:00 +1°C° 0.1 mm 5 mps 738 mmHg 83%
    01:00 +1°C° 0 mm 5 mps 739 mmHg 84%
    02:00 +1°C° 0 mm 4 mps 739 mmHg 84%
    03:00 0°C° 0 mm 4 mps 740 mmHg 85%
    04:00 0°C° 0 mm 4 mps 741 mmHg 86%
    05:00 0°C° 0 mm 4 mps 742 mmHg 87%
    06:00 0°C° 0 mm 4 mps 743 mmHg 88%
    07:00 -1°C° 0 mm 4 mps 744 mmHg 85%
    08:00 -1°C° 0 mm 4 mps 745 mmHg 83%
    09:00 -2°C° 0 mm 5 mps 746 mmHg 81%
    10:00 -1°C° 0 mm 5 mps 747 mmHg 74%
    11:00 0°C° 0 mm 5 mps 747 mmHg 67%
    12:00 +1°C° 0 mm 5 mps 748 mmHg 59%
    13:00 +1°C° 0 mm 4 mps 748 mmHg 60%
    14:00 +2°C° 0 mm 3 mps 748 mmHg 61%
    15:00 +3°C° 0 mm 2 mps 748 mmHg 62%
    16:00 +3°C° 0 mm 1 mps 749 mmHg 65%
    17:00 +2°C° 0 mm 1 mps 749 mmHg 67%
    18:00 +1°C° 0 mm 1 mps 749 mmHg 69%
    19:00 +1°C° 0 mm 1 mps 749 mmHg 69%
    20:00 +1°C° 0 mm 1 mps 749 mmHg 69%
    21:00 +1°C° 0 mm 1 mps 749 mmHg 68%
    22:00 +1°C° 0 mm 2 mps 749 mmHg 69%
    23:00 +1°C° 0 mm 2 mps 749 mmHg 69%

    Day after tomorrow, 18 January, Friday

    Time Temperature Precipitation Wind Pressure Humidity
    00:00 0°C° 0 mm 3 mps 749 mmHg 69%
    01:00 0°C° 0 mm 3 mps 748 mmHg 69%
    02:00 -1°C° 0 mm 4 mps 748 mmHg 68%
    03:00 -1°C° 0 mm 4 mps 747 mmHg 68%
    04:00 -1°C° 0 mm 4 mps 746 mmHg 69%
    05:00 -1°C° 0 mm 5 mps 746 mmHg 70%
    06:00 0°C° 0 mm 5 mps 745 mmHg 72%
    07:00 -1°C° 0.1 mm 6 mps 744 mmHg 73%
    08:00 +1°C° 0.1 mm 6 mps 744 mmHg 75%
    09:00 +2°C° 0.1 mm 7 mps 743 mmHg 76%
    10:00 +2°C° 0.1 mm 7 mps 743 mmHg 80%
    11:00 +2°C° 0.1 mm 8 mps 742 mmHg 83%
    12:00 +4°C° 0.1 mm 8 mps 742 mmHg 86%
    13:00 +4°C° 1.7 mm 8 mps 741 mmHg 89%
    14:00 +4°C° 1.7 mm 8 mps 741 mmHg 91%
    15:00 +4°C° 1.7 mm 8 mps 740 mmHg 93%
    16:00 +4°C° 0.8 mm 6 mps 740 mmHg 93%
    17:00 +5°C° 0.8 mm 5 mps 740 mmHg 94%
    18:00 +5°C° 0.8 mm 4 mps 739 mmHg 95%
    19:00 +4°C° 0 mm 3 mps 739 mmHg 93%
    20:00 +5°C° 0 mm 2 mps 739 mmHg 92%
    21:00 +4°C° 0 mm 2 mps 739 mmHg 91%
    22:00 +4°C° 0.1 mm 2 mps 738 mmHg 91%
    23:00 +4°C° 0.1 mm 2 mps 738 mmHg 91%

    19 January, Saturday

    Time Temperature Precipitation Wind Pressure Humidity
    00:00 +4°C° 0.1 mm 2 mps 738 mmHg 90%
    01:00 +4°C° 0.1 mm 2 mps 738 mmHg 91%
    02:00 +4°C° 0.1 mm 2 mps 738 mmHg 91%
    03:00 +4°C° 0.1 mm 2 mps 737 mmHg 92%
    04:00 +4°C° 0 mm 2 mps 737 mmHg 92%
    05:00 +4°C° 0 mm 2 mps 737 mmHg 92%
    06:00 +5°C° 0 mm 1 mps 737 mmHg 92%
    07:00 +5°C° 0 mm 1 mps 737 mmHg 92%
    08:00 +5°C° 0 mm 1 mps 737 mmHg 91%
    09:00 +4°C° 0 mm 0 mps 737 mmHg 91%
    10:00 +5°C° 0 mm 0 mps 737 mmHg 88%
    11:00 +6°C° 0 mm 0 mps 738 mmHg 84%
    12:00 +7°C° 0 mm 0 mps 738 mmHg 81%
    13:00 +8°C° 0 mm 1 mps 738 mmHg 82%
    14:00 +8°C° 0 mm 1 mps 738 mmHg 83%
    15:00 +8°C° 0 mm 1 mps 738 mmHg 84%
    16:00 +7°C° 0 mm 1 mps 738 mmHg 87%
    17:00 +6°C° 0 mm 1 mps 738 mmHg 89%
    18:00 +5°C° 0 mm 1 mps 739 mmHg 92%
    19:00 +4°C° 0 mm 1 mps 739 mmHg 92%
    20:00 +3°C° 0 mm 2 mps 740 mmHg 92%
    21:00 +3°C° 0 mm 2 mps 740 mmHg 92%
    22:00 +3°C° 0.1 mm 2 mps 741 mmHg 92%
    23:00 +3°C° 0.1 mm 2 mps 741 mmHg 92%

    20 January, Sunday

    Time Temperature Precipitation Wind Pressure Humidity
    00:00 +3°C° 0.1 mm 2 mps 741 mmHg 92%
    01:00 +3°C° 0.1 mm 2 mps 742 mmHg 93%
    02:00 +3°C° 0.1 mm 2 mps 742 mmHg 94%
    03:00 +3°C° 0.1 mm 2 mps 742 mmHg 95%
    04:00 +3°C° 0 mm 2 mps 743 mmHg 95%
    05:00 +3°C° 0 mm 2 mps 744 mmHg 95%
    06:00 +2°C° 0 mm 2 mps 744 mmHg 95%
    07:00 +2°C° 0 mm 2 mps 745 mmHg 94%
    08:00 +1°C° 0 mm 3 mps 746 mmHg 94%
    09:00 +1°C° 0 mm 3 mps 746 mmHg 93%
    10:00 +2°C° 0 mm 3 mps 747 mmHg 90%
    11:00 +3°C° 0 mm 4 mps 748 mmHg 87%
    12:00 +4°C° 0 mm 4 mps 748 mmHg 84%
    13:00 +4°C° 0 mm 4 mps 748 mmHg 83%
    14:00 +3°C° 0 mm 5 mps 749 mmHg 82%
    15:00 +3°C° 0 mm 5 mps 749 mmHg 81%
    16:00 +3°C° 0 mm 4 mps 750 mmHg 85%
    17:00 +1°C° 0 mm 4 mps 750 mmHg 88%
    18:00 0°C° 0 mm 4 mps 751 mmHg 91%
    19:00 0°C° 0 mm 4 mps 752 mmHg 91%
    20:00 0°C° 0 mm 4 mps 752 mmHg 92%
    21:00 0°C° 0 mm 4 mps 753 mmHg 92%
    22:00 0°C° 0 mm 4 mps 753 mmHg 92%
    23:00 0°C° 0 mm 4 mps 754 mmHg 92%

    21 January, Monday

    Time Temperature Precipitation Wind Pressure Humidity
    00:00 0°C° 0 mm 4 mps 754 mmHg 92%
    01:00 -1°C° 0 mm 4 mps 754 mmHg 92%
    02:00 -1°C° 0 mm 5 mps 755 mmHg 92%
    03:00 -1°C° 0 mm 5 mps 755 mmHg 92%
    04:00 -2°C° 0 mm 4 mps 755 mmHg 92%
    05:00 -2°C° 0 mm 4 mps 755 mmHg 92%
    06:00 -2°C° 0 mm 4 mps 755 mmHg 93%
    07:00 -1°C° 0 mm 3 mps 756 mmHg 92%
    08:00 -1°C° 0 mm 3 mps 756 mmHg 91%
    09:00 -1°C° 0 mm 3 mps 756 mmHg 90%
    10:00 +1°C° 0 mm 2 mps 756 mmHg 85%
    11:00 +2°C° 0 mm 2 mps 756 mmHg 80%
    12:00 +5°C° 0 mm 1 mps 756 mmHg 76%
    13:00 +5°C° 0 mm 1 mps 756 mmHg 76%
    14:00 +5°C° 0 mm 1 mps 755 mmHg 77%
    15:00 +4°C° 0 mm 2 mps 755 mmHg 77%
    16:00 +4°C° 0 mm 2 mps 754 mmHg 80%
    17:00 +3°C° 0 mm 2 mps 754 mmHg 82%
    18:00 +1°C° 0 mm 3 mps 753 mmHg 84%
    19:00 +1°C° 0 mm 4 mps 753 mmHg 84%
    20:00 +1°C° 0 mm 4 mps 752 mmHg 83%
    21:00 +1°C° 0 mm 5 mps 751 mmHg 83%
    22:00 +2°C° 0.4 mm 6 mps 750 mmHg 84%
    23:00 +3°C° 0.4 mm 7 mps 749 mmHg 86%
    Show more